Location: L�beck
(53.8752°N, 10.6787°E)
Time: 10:56:44
(UTC+01:00)

ISS - Pass Details

Date: 08 January 2018
Orbit: 402 x 407 km, 51.6° (Epoch: 18 January)

Event Time Altitude Azimuth Distance (km) Brightness Sun altitude
Exits shadow 05:06:13 16° 98° (E) 1,167 -0.7 -29.2°
Drops below altitude 10° 05:06:58 10° 95° (E) 1,470 -0.1 -29.0°
Sets 05:09:05 0° 91° (E) 2,332 1.3 -28.7°
